Time,TemperatureF,DewpointF,PressureIn,WindDirection,WindDirectionDegrees,WindSpeedMPH,WindSpeedGustMPH,Humidity,HourlyPrecipIn,Conditions,Clouds,dailyrainin,SoftwareType,DateUTC
2013-01-25 00:05:00,18.1,8.0,30.48,SSE,160,3.0,9.0,65,0.00,,,0.00,weatherlink.com 1.10,2013-01-25 05:05:00,
2013-01-25 00:20:00,18.1,8.0,30.47,East,94,0.0,6.0,65,0.00,,,0.00,weatherlink.com 1.10,2013-01-25 05:20:00,
2013-01-25 00:35:00,18.0,8.0,30.45,East,99,0.0,10.0,66,0.00,,,0.00,weatherlink.com 1.10,2013-01-25 05:35:00,
2013-01-25 00:50:00,17.9,9.0,30.45,SSE,152,0.0,7.0,67,0.00,,,0.00,weatherlink.com 1.10,2013-01-25 05:50:00,
2013-01-25 01:05:00,17.9,9.0,30.44,WSW,245,1.0,8.0,68,0.00,,,0.00,weatherlink.com 1.10,2013-01-25 06:05:00,
2013-01-25 01:20:00,18.0,9.0,30.44,East,79,1.0,7.0,69,0.00,,,0.00,weatherlink.com 1.10,2013-01-25 06:20:00,
2013-01-25 01:35:00,18.0,9.0,30.45,SE,128,2.0,6.0,68,0.00,,,0.00,weatherlink.com 1.10,2013-01-25 06:35:00,
2013-01-25 01:50:00,17.9,9.0,30.44,ESE,115,3.0,7.0,68,0.00,,,0.00,weatherlink.com 1.10,2013-01-25 06:50:00,
2013-01-25 02:05:00,17.9,9.0,30.43,ESE,110,0.0,10.0,68,0.00,,,0.00,weatherlink.com 1.10,2013-01-25 07:05:00,
2013-01-25 02:20:00,17.9,9.0,30.44,ESE,122,1.0,4.0,68,0.00,,,0.00,weatherlink.com 1.10,2013-01-25 07:20:00,
2013-01-25 02:35:00,17.9,9.0,30.43,SSE,152,0.0,6.0,69,0.00,,,0.00,weatherlink.com 1.10,2013-01-25 07:35:00,
2013-01-25 02:50:00,17.9,9.0,30.43,SE,131,4.0,8.0,69,0.00,,,0.00,weatherlink.com 1.10,2013-01-25 07:50:00,
2013-01-25 03:05:00,17.9,9.0,30.41,SE,128,13.0,13.0,69,0.00,,,0.00,weatherlink.com 1.10,2013-01-25 08:05:00,
2013-01-25 03:20:00,17.9,9.0,30.39,ESE,113,6.0,8.0,69,0.00,,,0.00,weatherlink.com 1.10,2013-01-25 08:20:00,
2013-01-25 03:35:00,17.9,9.0,30.38,East,90,4.0,6.0,69,0.00,,,0.00,weatherlink.com 1.10,2013-01-25 08:35:00,
2013-01-25 03:50:00,17.9,9.0,30.37,ESE,110,0.0,7.0,69,0.00,,,0.00,weatherlink.com 1.10,2013-01-25 08:50:00,
2013-01-25 04:06:00,17.9,9.0,30.35,East,94,2.0,6.0,69,0.00,,,0.00,weatherlink.com 1.10,2013-01-25 09:06:00,
2013-01-25 04:21:00,17.9,9.0,30.34,ESE,113,0.0,10.0,69,0.00,,,0.00,weatherlink.com 1.10,2013-01-25 09:21:00,
2013-01-25 04:36:00,17.9,9.0,30.33,SE,128,1.0,7.0,69,0.00,,,0.00,weatherlink.com 1.10,2013-01-25 09:36:00,
2013-01-25 04:51:00,18.0,9.0,30.32,SE,135,6.0,8.0,69,0.00,,,0.00,weatherlink.com 1.10,2013-01-25 09:51:00,
2013-01-25 05:06:00,18.1,10.0,30.31,East,101,1.0,9.0,69,0.00,,,0.00,weatherlink.com 1.10,2013-01-25 10:06:00,
2013-01-25 05:21:00,18.1,10.0,30.30,ESE,117,0.0,6.0,69,0.00,,,0.00,weatherlink.com 1.10,2013-01-25 10:21:00,
2013-01-25 05:36:00,18.1,10.0,30.28,East,98,0.0,6.0,69,0.00,,,0.00,weatherlink.com 1.10,2013-01-25 10:36:00,
2013-01-25 05:51:00,18.1,10.0,30.27,SE,124,6.0,10.0,69,0.00,,,0.00,weatherlink.com 1.10,2013-01-25 10:51:00,
2013-01-25 06:06:00,18.1,10.0,30.26,SSE,150,1.0,8.0,69,0.00,,,0.00,weatherlink.com 1.10,2013-01-25 11:06:00,
2013-01-25 06:21:00,18.2,10.0,30.25,ESE,115,4.0,10.0,69,0.00,,,0.00,weatherlink.com 1.10,2013-01-25 11:21:00,
2013-01-25 06:36:00,18.2,10.0,30.24,SE,138,5.0,9.0,69,0.00,,,0.00,weatherlink.com 1.10,2013-01-25 11:36:00,
2013-01-25 06:51:00,18.3,10.0,30.24,ESE,103,1.0,10.0,69,0.00,,,0.00,weatherlink.com 1.10,2013-01-25 11:51:00,
2013-01-25 07:06:00,18.4,10.0,30.23,SE,128,5.0,11.0,69,0.00,,,0.00,weatherlink.com 1.10,2013-01-25 12:06:00,
2013-01-25 07:21:00,18.4,10.0,30.22,ESE,117,5.0,8.0,70,0.00,,,0.00,weatherlink.com 1.10,2013-01-25 12:21:00,
2013-01-25 07:36:00,18.5,10.0,30.22,SE,133,1.0,10.0,70,0.00,,,0.00,weatherlink.com 1.10,2013-01-25 12:36:00,
2013-01-25 07:51:00,18.5,10.0,30.22,SE,146,3.0,8.0,70,0.00,,,0.00,weatherlink.com 1.10,2013-01-25 12:51:00,
2013-01-25 08:06:00,18.4,11.0,30.22,SE,131,4.0,11.0,72,0.00,,,0.00,weatherlink.com 1.10,2013-01-25 13:06:00,
2013-01-25 08:21:00,17.8,13.0,30.23,SE,135,3.0,9.0,81,0.00,,,0.00,weatherlink.com 1.10,2013-01-25 13:21:00,
2013-01-25 08:36:00,17.4,13.0,30.22,ESE,120,2.0,4.0,84,0.00,,,0.00,weatherlink.com 1.10,2013-01-25 13:36:00,
2013-01-25 08:51:00,17.3,14.0,30.21,SE,128,2.0,3.0,86,0.00,,,0.00,weatherlink.com 1.10,2013-01-25 13:51:00,
2013-01-25 09:06:00,17.4,14.0,30.21,SE,126,0.0,2.0,87,0.00,,,0.00,weatherlink.com 1.10,2013-01-25 14:06:00,
2013-01-25 09:21:00,17.8,15.0,30.21,ESE,112,0.0,2.0,87,0.00,,,0.00,weatherlink.com 1.10,2013-01-25 14:21:00,
2013-01-25 09:36:00,18.0,15.0,30.20,SE,145,1.0,3.0,87,0.00,,,0.00,weatherlink.com 1.10,2013-01-25 14:36:00,
2013-01-25 09:51:00,17.9,15.0,30.19,ESE,121,2.0,5.0,87,0.00,,,0.00,weatherlink.com 1.10,2013-01-25 14:51:00,
2013-01-25 10:22:00,19.0,16.0,30.18,SSW,201,6.0,7.0,86,0.00,,,0.00,weatherlink.com 1.10,2013-01-25 15:22:00,
2013-01-25 10:37:00,19.4,15.0,30.19,SSE,152,2.0,7.0,84,0.00,,,0.00,weatherlink.com 1.10,2013-01-25 15:37:00,
2013-01-25 10:52:00,19.8,15.0,30.18,SE,139,5.0,11.0,82,0.00,,,0.00,weatherlink.com 1.10,2013-01-25 15:52:00,
2013-01-25 11:07:00,20.0,15.0,30.18,SSE,152,7.0,9.0,81,0.00,,,0.00,weatherlink.com 1.10,2013-01-25 16:07:00,
2013-01-25 11:22:00,20.8,16.0,30.16,SSE,162,6.0,10.0,81,0.00,,,0.00,weatherlink.com 1.10,2013-01-25 16:22:00,
2013-01-25 11:37:00,20.9,16.0,30.16,SE,144,4.0,8.0,80,0.00,,,0.00,weatherlink.com 1.10,2013-01-25 16:37:00,
2013-01-25 11:52:00,21.0,15.0,30.15,South,191,6.0,8.0,79,0.00,,,0.00,weatherlink.com 1.10,2013-01-25 16:52:00,
2013-01-25 12:22:00,21.5,16.0,30.14,SSE,162,6.0,9.0,78,0.00,,,0.00,weatherlink.com 1.10,2013-01-25 17:22:00,
2013-01-25 12:37:00,21.6,16.0,30.12,South,188,6.0,9.0,78,0.00,,,0.00,weatherlink.com 1.10,2013-01-25 17:37:00,
2013-01-25 12:52:00,21.9,16.0,30.11,SSE,158,5.0,8.0,79,0.00,,,0.00,weatherlink.com 1.10,2013-01-25 17:52:00,
2013-01-25 13:07:00,22.1,16.0,30.10,West,269,5.0,9.0,78,0.00,,,0.00,weatherlink.com 1.10,2013-01-25 18:07:00,
2013-01-25 13:22:00,22.0,16.0,30.09,SW,228,4.0,11.0,78,0.00,,,0.00,weatherlink.com 1.10,2013-01-25 18:22:00,
2013-01-25 13:37:00,22.0,16.0,30.08,SSW,210,4.0,10.0,78,0.00,,,0.00,weatherlink.com 1.10,2013-01-25 18:37:00,
2013-01-25 13:52:00,22.0,16.0,30.07,SSW,204,4.0,10.0,78,0.00,,,0.00,weatherlink.com 1.10,2013-01-25 18:52:00,
2013-01-25 14:07:00,22.2,17.0,30.07,SSW,204,1.0,7.0,79,0.00,,,0.00,weatherlink.com 1.10,2013-01-25 19:07:00,
2013-01-25 14:22:00,22.3,16.0,30.06,SW,218,7.0,12.0,78,0.00,,,0.00,weatherlink.com 1.10,2013-01-25 19:22:00,
2013-01-25 14:37:00,22.1,17.0,30.06,SSW,212,7.0,10.0,79,0.00,,,0.00,weatherlink.com 1.10,2013-01-25 19:37:00,
2013-01-25 14:52:00,22.1,17.0,30.05,SW,222,8.0,9.0,80,0.00,,,0.00,weatherlink.com 1.10,2013-01-25 19:52:00,
2013-01-25 15:07:00,22.0,17.0,30.05,SW,232,4.0,9.0,80,0.00,,,0.00,weatherlink.com 1.10,2013-01-25 20:07:00,
2013-01-25 15:22:00,22.1,17.0,30.05,SSW,210,4.0,10.0,80,0.00,,,0.00,weatherlink.com 1.10,2013-01-25 20:22:00,
2013-01-25 15:37:00,22.3,17.0,30.06,SW,222,7.0,11.0,80,0.00,,,0.00,weatherlink.com 1.10,2013-01-25 20:37:00,
2013-01-25 15:52:00,22.3,17.0,30.06,SSW,201,6.0,10.0,81,0.00,,,0.00,weatherlink.com 1.10,2013-01-25 20:52:00,
2013-01-25 16:07:00,22.4,17.0,30.07,SW,231,4.0,11.0,81,0.00,,,0.00,weatherlink.com 1.10,2013-01-25 21:07:00,
2013-01-25 16:22:00,22.4,17.0,30.07,SW,222,5.0,12.0,81,0.00,,,0.00,weatherlink.com 1.10,2013-01-25 21:22:00,
2013-01-25 16:37:00,22.5,18.0,30.06,SW,226,4.0,11.0,82,0.00,,,0.00,weatherlink.com 1.10,2013-01-25 21:37:00,
2013-01-25 16:52:00,22.6,18.0,30.07,SW,215,4.0,8.0,82,0.00,,,0.00,weatherlink.com 1.10,2013-01-25 21:52:00,
2013-01-25 17:07:00,22.5,18.0,30.06,SW,214,3.0,10.0,82,0.00,,,0.00,weatherlink.com 1.10,2013-01-25 22:07:00,
2013-01-25 17:22:00,22.5,18.0,30.06,SW,222,5.0,6.0,83,0.00,,,0.00,weatherlink.com 1.10,2013-01-25 22:22:00,
2013-01-25 17:37:00,22.5,18.0,30.07,SW,215,5.0,9.0,84,0.00,,,0.00,weatherlink.com 1.10,2013-01-25 22:37:00,
2013-01-25 17:52:00,22.5,18.0,30.07,SW,226,4.0,8.0,84,0.00,,,0.00,weatherlink.com 1.10,2013-01-25 22:52:00,
2013-01-25 18:07:00,22.5,19.0,30.08,WSW,249,4.0,8.0,85,0.00,,,0.00,weatherlink.com 1.10,2013-01-25 23:07:00,
2013-01-25 18:23:00,22.5,19.0,30.08,SW,214,4.0,7.0,85,0.00,,,0.00,weatherlink.com 1.10,2013-01-25 23:23:00,
2013-01-25 18:38:00,22.6,19.0,30.08,SW,228,4.0,5.0,86,0.00,,,0.00,weatherlink.com 1.10,2013-01-25 23:38:00,
2013-01-25 18:53:00,22.6,19.0,30.09,SW,226,2.0,5.0,87,0.00,,,0.00,weatherlink.com 1.10,2013-01-25 23:53:00,
2013-01-25 19:08:00,22.6,19.0,30.09,South,175,2.0,6.0,87,0.00,,,0.00,weatherlink.com 1.10,2013-01-26 00:08:00,
2013-01-25 19:23:00,22.7,20.0,30.09,SSW,212,3.0,4.0,88,0.00,,,0.00,weatherlink.com 1.10,2013-01-26 00:23:00,
2013-01-25 19:38:00,22.8,20.0,30.10,SSE,167,2.0,5.0,88,0.00,,,0.00,weatherlink.com 1.10,2013-01-26 00:38:00,
2013-01-25 19:53:00,22.9,20.0,30.09,SW,222,2.0,5.0,88,0.00,,,0.00,weatherlink.com 1.10,2013-01-26 00:53:00,
2013-01-25 20:09:00,23.0,20.0,30.10,SSW,193,3.0,4.0,88,0.00,,,0.00,weatherlink.com 1.10,2013-01-26 01:09:00,
2013-01-25 20:23:00,23.0,20.0,30.10,South,175,4.0,4.0,88,0.00,,,0.00,weatherlink.com 1.10,2013-01-26 01:23:00,
2013-01-25 20:38:00,23.1,20.0,30.09,South,173,2.0,4.0,88,0.00,,,0.00,weatherlink.com 1.10,2013-01-26 01:38:00,
2013-01-25 20:53:00,23.3,20.0,30.09,South,176,2.0,6.0,87,0.00,,,0.00,weatherlink.com 1.10,2013-01-26 01:53:00,
2013-01-25 21:08:00,23.5,20.0,30.09,SSW,201,4.0,6.0,87,0.00,,,0.00,weatherlink.com 1.10,2013-01-26 02:08:00,
2013-01-25 21:23:00,23.6,20.0,30.09,South,183,3.0,6.0,87,0.00,,,0.00,weatherlink.com 1.10,2013-01-26 02:23:00,
2013-01-25 21:38:00,23.6,20.0,30.09,SE,146,1.0,6.0,87,0.00,,,0.00,weatherlink.com 1.10,2013-01-26 02:38:00,
2013-01-25 21:53:00,23.8,21.0,30.09,West,259,3.0,5.0,87,0.00,,,0.00,weatherlink.com 1.10,2013-01-26 02:53:00,
2013-01-25 22:08:00,23.8,20.0,30.10,South,191,2.0,3.0,86,0.00,,,0.00,weatherlink.com 1.10,2013-01-26 03:08:00,
2013-01-25 22:23:00,23.8,20.0,30.09,South,188,1.0,3.0,86,0.00,,,0.00,weatherlink.com 1.10,2013-01-26 03:23:00,
2013-01-25 22:38:00,23.8,20.0,30.10,South,183,2.0,4.0,86,0.00,,,0.00,weatherlink.com 1.10,2013-01-26 03:38:00,
2013-01-25 22:53:00,23.8,20.0,30.10,SW,235,1.0,2.0,86,0.00,,,0.00,weatherlink.com 1.10,2013-01-26 03:53:00,
2013-01-25 23:08:00,23.8,20.0,30.10,SW,219,1.0,3.0,86,0.00,,,0.00,weatherlink.com 1.10,2013-01-26 04:08:00,
2013-01-25 23:23:00,24.0,20.0,30.11,SSW,208,1.0,1.0,86,0.00,,,0.00,weatherlink.com 1.10,2013-01-26 04:23:00,
2013-01-25 23:38:00,24.1,21.0,30.12,SW,226,1.0,1.0,86,0.00,,,0.00,weatherlink.com 1.10,2013-01-26 04:38:00,
2013-01-25 23:53:00,24.4,21.0,30.12,West,266,3.0,3.0,86,0.00,,,0.00,weatherlink.com 1.10,2013-01-26 04:53:00,